ZHONGXING-26

Last updated on Sun Jun 21 2026 00:03:09 GMT+0000 (Coordinated Universal Time)

1 55686U 23023A 26171.30180122 -.00000358 00000+0 00000+0 0 9999 2 55686 0.0694 71.6797 0003456 16.9167 53.6904 1.00270693 12262
UTC large
Height (km)
Speed (km/s)
/
Latitude / Longitude
Inclination (degrees)
Orbital Period (minutes)
Azimuth
Elevation
Range (km)
Doppler Factor

Next 0 passes for location: London (51.5072 / 0.1276)

No passes found over London.
ZHONGXING-26